CW9244 Weather Reports


Display with metric or nautical units.
time (UTC)temp
F
wind
direction
speed
MPH
gust
MPH
rain 1hr
in
rain 24hr
in
rain mn
in
humidity
%
barometer
mb
20191018023230 54 286 6.0 0.0 0.00 0.03 0.00 61 0.9
20191018022229 54 275 7.0 0.0 0.00 0.03 0.00 61 0.9
20191018021229 54 273 4.0 0.0 0.00 0.04 0.00 62 0.9
20191018020229 54 265 2.0 0.0 0.00 0.06 0.00 62 0.9
20191018015230 54 292 5.0 0.0 0.00 0.06 0.00 61 0.9
20191018014331 54 304 6.0 0.0 0.00 0.06 0.00 62 0.9
20191018013328 54 298 5.0 0.0 0.00 0.09 0.00 61 0.9
20191018012429 54 287 4.0 0.0 0.00 0.20 0.00 60 0.9
20191018011430 54 295 7.0 0.0 0.00 0.38 0.00 60 0.9
20191018010529 54 273 4.0 0.0 0.00 0.57 0.00 60 0.9
20191018005629 54 273 3.0 0.0 0.00 0.67 0.00 60 0.9
20191018004629 54 283 5.0 0.0 0.00 0.81 0.00 60 0.9
20191018003727 54 267 5.0 0.0 0.00 0.87 0.00 58 0.9
20191018002729 54 291 5.0 0.0 0.00 0.92 0.00 59 0.9
20191018001730 54 280 6.0 0.0 0.00 0.98 0.00 59 0.9
20191018000829 54 292 4.0 0.0 0.00 1.04 0.00 60 0.9
20191017235829 54 204 2.0 0.0 0.00 1.12 0.00 58 0.9
20191017234829 55 276 4.0 0.0 0.00 1.19 0.00 57 0.9
20191017233928 55 245 3.0 0.0 0.00 1.24 0.00 58 0.9
20191017233028 54 290 6.0 0.0 0.00 1.30 0.00 58 0.9
20191017232029 55 260 2.0 0.0 0.00 1.39 0.00 57 0.9
20191017231129 55 284 5.0 0.0 0.00 1.45 0.00 56 0.9
20191017230128 55 265 7.0 0.0 0.00 1.52 0.00 57 0.9
20191017225127 55 291 6.0 0.0 0.00 1.61 0.00 58 0.9
20191017224228 55 292 6.0 0.0 0.00 1.71 0.00 58 0.9
20191017223228 55 272 5.0 0.0 0.00 1.76 0.00 57 0.9
20191017222229 55 278 5.0 0.0 0.00 1.82 0.00 58 0.9
20191017221325 55 268 4.0 0.0 0.00 1.86 0.00 58 0.9
20191017220328 55 268 3.0 0.0 0.00 1.91 0.00 59 0.9
20191017215327 55 285 2.0 0.0 0.00 1.96 0.00 59 0.9
20191017214330 55 255 1.0 0.0 0.00 2.02 0.00 57 0.9
20191017213428 55 294 6.0 0.0 0.00 2.06 0.00 57 0.9
20191017212527 55 276 4.0 0.0 0.00 2.10 0.00 58 0.9
20191017211528 55 285 4.0 0.0 0.00 2.11 0.00 57 0.9
20191017210629 55 257 2.0 0.0 0.00 2.11 0.00 57 0.9
20191017205629 55 241 5.0 0.0 0.00 2.11 0.00 57 0.9
20191017204727 56 254 2.0 0.0 0.00 2.11 0.00 56 0.9
20191017203802 56 292 4.0 0.0 0.00 2.11 0.00 54 0.9
20191017202728 57 268 7.0 0.0 0.00 2.11 0.00 55 0.9
20191017201730 57 260 5.0 0.0 0.00 2.11 0.00 55 0.9
20191017200728 57 268 6.0 0.0 0.00 2.11 0.00 55 0.9
20191017195827 57 265 7.0 0.0 0.00 2.11 0.00 54 0.9
20191017194831 57 235 3.0 0.0 0.00 2.11 0.00 54 0.9
20191017193829 57 289 4.0 0.0 0.00 2.11 0.00 55 0.9
20191017192827 57 278 6.0 0.0 0.00 2.11 0.00 54 0.9
20191017191827 57 296 4.0 0.0 0.00 2.11 0.00 53 0.9
20191017190829 57 268 4.0 0.0 0.00 2.11 0.00 54 0.9
20191017185930 57 242 3.0 0.0 0.00 2.11 0.00 54 0.9
20191017184928 56 252 5.0 0.0 0.00 2.11 0.00 55 0.9
20191017183930 56 288 6.0 0.0 0.00 2.11 0.00 55 0.9
20191017183027 56 290 8.0 0.0 0.00 2.11 0.00 55 0.9
20191017182028 56 277 3.0 0.0 0.00 2.11 0.00 53 0.9
20191017181125 57 242 6.0 0.0 0.00 2.11 0.00 54 0.9
20191017180128 56 249 2.0 0.0 0.00 2.11 0.00 53 0.9
20191017175132 56 281 5.0 0.0 0.00 2.11 0.00 54 0.9
20191017174228 56 256 5.0 0.0 0.00 2.11 0.00 55 0.9
20191017173328 56 288 3.0 0.0 0.00 2.11 0.00 55 0.9
20191017172329 55 267 7.0 0.0 0.00 2.11 0.00 56 0.9
20191017171427 55 237 4.0 0.0 0.00 2.11 0.00 57 0.9
20191017170527 55 280 5.0 0.0 0.00 2.11 0.00 57 0.9
20191017165529 55 281 4.0 0.0 0.00 2.11 0.00 57 0.9
20191017164529 56 264 3.0 0.0 0.00 2.11 0.00 57 0.9
20191017163628 55 275 6.0 0.0 0.00 2.11 0.00 59 0.9
20191017162728 56 279 3.0 0.0 0.00 2.11 0.00 58 0.9
20191017161731 56 270 6.0 0.0 0.00 2.11 0.00 55 0.9
20191017160727 56 224 2.0 0.0 0.00 2.11 0.00 57 0.9
20191017155729 55 256 5.0 0.0 0.00 2.11 0.00 57 0.9
20191017154829 55 258 4.0 0.0 0.00 2.11 0.00 59 0.9
20191017153829 54 177 2.0 0.0 0.00 2.11 0.00 58 0.9
20191017152828 54 238 6.0 0.0 0.00 2.11 0.00 59 0.9
20191017151928 54 236 4.0 0.0 0.00 2.11 0.00 58 0.9
20191017150928 54 260 2.0 0.0 0.00 2.11 0.00 60 0.9
20191017145929 54 195 2.0 0.0 0.00 2.11 0.00 59 0.9
20191017144929 54 303 0.0 0.0 0.00 2.11 0.00 60 0.9
20191017143928 53 218 3.0 0.0 0.00 2.11 0.00 61 0.9
20191017143028 53 283 4.0 0.0 0.00 2.11 0.00 62 0.9
20191017142030 53 298 3.0 0.0 0.00 2.11 0.00 64 0.9
20191017141030 52 284 3.0 0.0 0.00 2.11 0.00 64 0.9
20191017140030 52 247 1.0 0.0 0.00 2.11 0.00 64 0.9
20191017135027 52 241 2.0 0.0 0.00 2.11 0.00 65 0.9
20191017134029 52 236 3.0 0.0 0.00 2.11 0.00 65 0.9
20191017133029 52 289 3.0 0.0 0.00 2.11 0.00 64 0.9
20191017132131 52 241 1.0 0.0 0.00 2.11 0.00 65 0.9
20191017131130 51 263 3.0 0.0 0.00 2.11 0.00 67 0.9
20191017130227 51 215 1.0 0.0 0.00 2.11 0.00 69 0.9
20191017125327 51 216 2.0 0.0 0.00 2.11 0.00 70 0.9
20191017124328 51 268 3.0 0.0 0.00 2.11 0.00 68 0.9
20191017123426 51 276 3.0 0.0 0.00 2.11 0.00 69 0.9
20191017122429 51 270 0.0 0.0 0.00 2.11 0.00 70 0.9
20191017121428 51 268 2.0 0.0 0.00 2.11 0.00 70 0.9
20191017120428 51 285 2.0 0.0 0.00 2.11 0.00 71 0.9
20191017115528 50 292 0.0 0.0 0.00 2.11 0.00 70 0.9
20191017114627 50 251 6.0 0.0 0.00 2.11 0.00 71 0.9
20191017113727 50 253 1.0 0.0 0.00 2.11 0.00 71 0.9
20191017112730 50 256 4.0 0.0 0.00 2.11 0.00 72 0.9
20191017111829 50 233 2.0 0.0 0.00 2.11 0.00 70 0.9
20191017110928 50 212 4.0 0.0 0.00 2.11 0.00 69 0.9
20191017110028 50 228 2.0 0.0 0.00 2.11 0.00 69 0.9
20191017105031 50 225 1.0 0.0 0.00 2.11 0.00 68 0.9
20191017104127 51 225 2.0 0.0 0.00 2.11 0.00 68 0.9
20191017103227 51 268 1.0 0.0 0.00 2.11 0.00 67 0.9
20191017102228 51 265 3.0 0.0 0.00 2.11 0.00 68 0.9
20191017101228 51 244 2.0 0.0 0.00 2.11 0.00 68 0.9
20191017100329 51 270 4.0 0.0 0.00 2.11 0.00 67 0.9
20191017095427 51 221 2.0 0.0 0.00 2.11 0.00 68 0.9
20191017094430 51 255 3.0 0.0 0.00 2.11 0.00 69 0.9
20191017093528 51 241 4.0 0.0 0.00 2.11 0.00 69 0.9
20191017092528 51 274 3.0 0.0 0.00 2.11 0.00 71 0.9
20191017091528 52 256 4.0 0.0 0.00 2.11 0.00 70 0.9
20191017090528 52 256 6.0 0.0 0.00 2.11 0.00 69 0.9
20191017085529 52 253 2.0 0.0 0.00 2.11 0.00 71 0.9
20191017084530 52 290 3.0 0.0 0.00 2.11 0.00 72 0.9
20191017083631 51 283 6.0 0.0 0.00 2.11 0.00 73 0.9
20191017082628 51 248 5.0 0.0 0.00 2.11 0.00 74 0.9
20191017081728 51 258 3.0 0.0 0.00 2.11 0.00 75 0.9
20191017080827 51 275 5.0 0.0 0.00 2.11 0.00 74 0.9
20191017075928 51 284 7.0 0.0 0.00 2.11 0.00 75 0.9
20191017074929 51 278 4.0 0.0 0.00 2.11 0.00 74 0.9
20191017074029 51 275 2.0 0.0 0.00 2.11 0.00 76 0.9
20191017073030 50 281 7.0 0.0 0.00 2.11 0.00 77 0.9
20191017072127 50 286 4.0 0.0 0.00 2.11 0.00 77 0.9
20191017071129 51 286 5.0 0.0 0.00 2.11 0.00 79 0.9
20191017070130 51 276 2.0 0.0 0.00 2.11 0.00 78 0.9
20191017065129 51 236 4.0 0.0 0.00 2.11 0.00 80 0.9
20191017064228 52 294 2.0 0.0 0.00 2.11 0.00 79 0.9
20191017063229 52 289 4.0 0.0 0.00 2.11 0.00 78 0.9
20191017062229 53 264 4.0 0.0 0.00 2.11 0.00 77 0.9
20191017061228 53 279 6.0 0.0 0.00 2.11 0.00 78 0.9
20191017060230 53 290 7.0 0.0 0.00 2.11 0.00 79 0.9
20191017055229 53 272 3.0 0.0 0.00 2.11 0.00 79 0.9
20191017054330 54 256 5.0 0.0 0.00 2.11 0.00 79 0.9
20191017053329 54 284 5.0 0.0 0.00 2.11 0.00 81 0.9
20191017052329 54 292 5.0 0.0 0.00 2.11 0.00 85 0.9
20191017051328 53 288 5.0 0.0 0.00 2.11 0.00 89 0.9
20191017050429 53 282 10.0 0.0 0.00 2.11 0.00 92 0.9
20191017045527 53 278 4.0 0.0 0.01 2.11 0.00 93 0.9
20191017044527 53 289 11.0 0.0 0.01 2.11 0.00 94 0.9
20191017043531 55 246 7.0 0.0 0.01 2.11 0.00 96 0.9
20191017042629 57 287 3.0 0.0 0.02 2.11 0.00 95 0.9
20191017041729 58 292 5.0 0.0 0.02 2.11 0.00 95 0.9
20191017040827 60 292 2.0 0.0 0.02 2.11 0.00 95 0.9
20191017035924 62 261 4.0 0.0 0.02 2.11 2.11 96 0.9
20191017034926 63 112 0.0 0.0 0.02 2.10 2.10 95 0.9
20191017033928 63 112 0.0 0.0 0.02 2.10 2.10 95 0.9
20191017033025 63 112 2.0 0.0 0.02 2.10 2.10 96 0.9
20191017032027 63 112 0.0 0.0 0.02 2.09 2.09 96 0.9
20191017031123 63 112 0.0 0.0 0.02 2.09 2.09 95 0.9
20191017030125 63 112 0.0 0.0 0.04 2.09 2.09 96 0.9
20191017025225 63 109 4.0 0.0 0.04 2.09 2.09 96 0.9
20191017024326 63 135 3.0 0.0 0.03 2.08 2.08 96 0.9